Regional Weather Roundup
Issued by NWS San Diego, CA

Current Version | Previous Version | Text Only | Print | Product List | Glossary On
Versions: 1 2 3 4 5 6 7 8 9 10 11 12 13 14 15 16 17 18 19 20 21 22 23 24 25 26 27 28 29 30 31 32 33 34 35 36 37 38 39 40 41 42 43 44 45 46 47 48 49 50
671
ASUS46 KSGX 180411
RWRSGX

SAN DIEGO HOURLY WEATHER ROUNDUP
NATIONAL WEATHER SERVICE SAN DIEGO CA
800 PM PST SUN FEB 17 2019

NOTE: "FAIR" INDICATES FEW OR NO CLOUDS BELOW 12,000 FEET WITH NO
SIGNIFICANT WEATHER AND/OR OBSTRUCTIONS TO VISIBILITY.

CAZ042-043-060-061-PZZ750-775-180500-

GREATER SAN DIEGO AREA

CITY           SKY/WX    TMP DP  RH WIND       PRES   REMARKS
SAN DIEGO AP   PTCLDY    55  42  61 W15G25    30.06R
NATIONAL CITY    N/A     53  47  78 W8        30.05R
CHULA VISTA      N/A     52  47  84 W7        29.96R
IMPERIAL BEACH MOCLDY    54  45  71 W20       30.06R
BROWN FIELD    CLOUDY    51  46  83 W13G21    30.04S
MIRAMAR MCAS   PTCLDY    54  41  61 W8        30.02S
MONTGOMERY FLD PTCLDY    52  40  63 W20G26    30.03R
GILLESPIE FLD  LGT RAIN  52  43  71 W15       30.03R

$$

NORTH SAN DIEGO COUNTY

CITY           SKY/WX    TMP DP  RH WIND       PRES   REMARKS
CAMP PENDLETON PTCLDY    51  41  68 W8        30.00S
OCEANSIDE AP   PTCLDY    53  40  61 W12G26    30.00R
OCEANSIDE HBR    N/A     55  44  66 W13       30.03R
VISTA            N/A     50  41  70 SW1       29.99R
CARLSBAD       MOCLDY    54  40  59 W13G18    30.00R
DEL MAR          N/A     53  44  71 W6        30.03S
LA JOLLA SCRIP   N/A     54  46  74 SW14      30.03R
FALLBROOK      CLOUDY    46  39  76 W7        30.00S
ESCONDIDO        N/A     50  41  72 W7        30.03R
SAN MARCOS       N/A     51  41  70 W14       30.06R
POWAY            N/A     47  44  88 CALM      30.06R

$$

EAST SAN DIEGO COUNTY

CITY           SKY/WX    TMP DP  RH WIND       PRES   REMARKS
RAMONA         MOCLDY    45  39  79 W12       30.00R
LA MESA          N/A     49  46  92 W3        29.99R
JAMUL            N/A     47  45  93 CALM      30.06R
CAMPO            N/A     42  39  89 W30G38    29.91F

$$

ORANGE COUNTY AND THE LOS ANGELES BASIN

CITY           SKY/WX    TMP DP  RH WIND       PRES   REMARKS
JOHN WAYNE AP  PTCLDY    53  39  59 W10G21    29.98R
LAKE FOREST FR   N/A     47  38  68 SW3       29.88S
HUNTINGTON BCH   N/A     53  44  72 NW16      30.00R
LOS ALAMITOS   FAIR      51  40  65 W15G26    29.96S
FULLERTON      PTCLDY    53  37  54 W9G21     29.95S
LONG BEACH     PTCLDY    53  38  56 W22G31    29.96R
L.A. AP        PTCLDY    53  38  56 W28G37    29.96R
L.A. DOWNTOWN  PTCLDY    51  37  58 CALM      29.95R

$$

THE INLAND EMPIRE

CITY           SKY/WX    TMP DP  RH WIND       PRES   REMARKS
CORONA         PTCLDY    49  40  71 SW14G23   29.95S
CHINO          MOCLDY    46  40  79 SW8       29.96R
ONTARIO        MOCLDY    51  41  68 W5        29.93S
RIVERSIDE AP   MOCLDY    48  39  71 W13       29.95R
MORENO VALLEY    N/A     44  43  95 W3        28.04F
MARCH ARB      MOCLDY    44  43  94 SW8       29.93S
HORSETHIEF CYN   N/A     46  33  61 CALM      29.97R
PERRIS           N/A     44  42  89 W2        29.94R
HEMET EAST       N/A     38  33  84 SW2       29.93S
FRENCH VALLEY  CLOUDY    45  39  81 SW6       29.97S
TEMECULA         N/A     47  43  87 SW5       29.97R

$$

SAN BERNARDINO AND RIVERSIDE COUNTY MOUNTAINS

CITY           SKY/WX    TMP DP  RH WIND       PRES   REMARKS
BIG BEAR AP    LGT SNOW  21  19  93 W7G23     29.77S WCI  13

$$

SOUTHERN DESERT INCLUDING THE COACHELLA VALLEY

CITY           SKY/WX    TMP DP  RH WIND       PRES   REMARKS
PALM SPRINGS   MOCLDY    49  43  80 CALM      29.92S
PALM DESERT      N/A     51  38  61 NW5       29.82F
THERMAL        PTCLDY    54  40  59 CALM      29.91F
BORREGO AP     CLOUDY    52  37  58 N7G18     29.91S
BLYTHE         MOCLDY    55  36  48 SW20      29.91R
IMPERIAL AP    CLOUDY    51  38  60 SW15      29.93F
YUMA AZ        CLOUDY    56  34  43 SW7       29.95R
MEXICALI       PTCLDY    55  34  44 N7        29.95S

$$

UPPER DESERT

CITY           SKY/WX    TMP DP  RH WIND       PRES   REMARKS
VICTORVILLE AP MOCLDY   N/A N/A N/A SW7       29.91R
HESPERIA         N/A     36  32  84 W2        30.02R
APPLE VALLEY     N/A     37  31  78 N5        29.99S WCI  34
PALMDALE       CLOUDY    39  29  67 W13       29.92R WCI  31
LANCASTER      CLOUDY    36  32  85 W13       29.94R WCI  27
EDWARDS AFB    CLOUDY    38  28  66 W18       29.88S WCI  28
DAGGETT        PTCLDY    40  27  59 W18       29.88R WCI  31
29 PALMS N     CLOUDY    43  32  65 W22G28    29.96R
NEEDLES        RAIN      45  39  79 NW13      29.92R

$$

REGIONAL REPORTS

CITY           SKY/WX    TMP DP  RH WIND       PRES   REMARKS
SANTA BARBARA  LGT RAIN  49  39  68 N12       30.02R
SANDBERG       HVY SNOW  29  27  92 N20       29.90R VSB 1/4 WCI  16
LAS VEGAS NV   MOCLDY    41  32  70 S5        29.81R
PHOENIX AZ     PTCLDY    53  29  39 SW6       29.92S
TIJUANA        MOCLDY    50  48  93 W13       30.07R

$$

OFFSHORE ISLANDS

CITY           SKY/WX    TMP DP  RH WIND       PRES   REMARKS
CATALINA ARPT  MOCLDY    45  40  82 W28G36    29.98R
SAN CLEMENTE I PTCLDY    51  44  77 MISG      30.05S
SAN NICOLAS IS PTCLDY    49  32  52 W21G30    30.04S

$$

MARINE AND OFFSHORE BUOY REPORTS

STATION/POSITION SKY/WX   TEMP    WIND        PRES    VSBY  SWELL
                          AIR SEA DIR/SP/G                  HT/PER/DIR
                          (F)     (DEG/KT/KT) (MB)    (MI)  (FT/S/D)
TANNER BANKS               56 60              1018.2R
S CLEMENTE BASIN           55 60  280/ 21/ 25 1017.2R         5/280/10
SAN NICOLAS IS.               57                N/A           7/310/12
SO. S. ROSA ISLA           53 57  300/ 25/ 31 1017.1R        10/300/13
W. S. BARBARA CH                              1016.6
M. S. BARBARA CH           53 58  300/ 23/ 29 1016.6R         3/270/ 8
S. MONICA BASIN            54 57  290/ 23/ 31 1015.6R         2/260/14
S PEDRO CHANNEL               57                N/A           2/270/13
OCEANSIDE OFFSHR              59                N/A           2/180/14
TORREY PINES OTR              59                N/A           2/260/13
SAN DIEGO BAY                                 1017.0R
IMPERIAL BEACH                58                N/A           2/270/11
POINT LOMA SOUTH              59                N/A           3/290/13

$$





USA.gov is the U.S. government's official web portal to all federal, state and local government web resources and services.